EHI
3 1 1 1 0 0 0 0 0 0 0 0 0 0 0 0 0 0 0 0 1 2 4 8 11 9 4 1 2 3 3 3 4 5 5 4 4 5 6 6 4 2 2 1 0 0 0 1 1
1 1 1 1 0 0 0 0 0 1 1 0 0 0 0 0 0 0 0 1 2 2 3 5 9 9 4 1 1 1 1 2 4 5 5 4 3 4 4 4 3 2 1 0 0 0 0 0 1
1 1 1 1 0 0 0 0 1 2 1 0 0 0 0 0 0 0 0 1 1 1 1 4 9 10 5 1 0 0 0 1 2 4 5 4 3 3 3 3 3 2 0 0 0 0 0 0 0
3 3 3 2 1 0 0 0 1 2 1 0 0 0 0 0 0 0 0 0 1 0 1 4 10 11 8 3 1 0 0 0 1 3 3 3 3 3 3 3 2 2 1 1 0 0 0 1 1
6 5 4 3 2 0 0 0 1 1 1 0 0 0 0 0 0 0 0 0 1 0 1 5 10 11 9 6 3 1 1 0 1 2 2 3 3 3 3 3 2 2 2 2 1 1 2 3 4
7 5 4 2 1 0 0 0 0 1 1 1 0 0 0 0 0 0 0 0 0 0 0 3 8 8 7 6 5 4 3 2 2 2 3 4 4 3 3 3 3 4 4 4 3 3 5 6 6
6 5 3 1 0 0 0 0 0 1 2 1 0 0 0 0 1 2 1 0 0 0 0 2 4 5 5 5 6 6 5 3 1 2 3 5 5 4 3 4 5 6 5 5 4 5 7 7 5
6 4 1 0 0 0 0 0 0 1 2 1 0 0 0 1 3 4 3 1 0 0 0 1 1 2 3 3 4 5 4 3 2 2 4 5 5 4 3 3 5 6 6 4 3 4 5 6 5
5 3 1 0 0 0 1 1 1 1 2 2 1 1 1 2 4 5 4 2 0 0 0 0 0 1 2 2 3 3 3 3 3 3 4 4 3 2 1 2 4 6 5 4 3 3 4 5 5
5 3 1 0 1 2 4 3 2 3 3 4 4 4 3 4 5 6 4 2 1 0 0 0 0 1 2 2 2 2 2 2 2 1 1 1 1 1 0 1 2 4 4 3 3 4 4 4 4
5 3 2 2 3 5 6 4 3 3 4 5 5 5 5 4 5 4 3 3 3 2 1 0 1 2 2 1 1 1 1 1 1 0 0 0 0 0 0 0 1 1 2 2 2 4 4 3 3
3 3 3 4 5 6 5 4 3 3 5 6 6 5 4 4 4 4 4 6 6 5 3 3 2 2 1 0 0 0 0 0 0 0 0 0 0 0 0 0 0 0 0 0 0 1 2 2 2
1 2 4 6 6 7 6 4 4 4 6 8 7 4 4 5 5 5 5 8 10 8 6 6 4 3 1 0 0 0 0 0 0 0 0 0 0 0 0 0 0 0 0 0 0 0 1 1 1
1 2 4 5 6 7 6 4 4 6 8 9 8 6 6 8 10 8 8 11 12 9 7 7 5 3 1 0 0 0 0 0 1 0 0 1 1 0 0 0 0 0 0 0 0 0 0 0 1
1 1 2 3 4 5 5 4 6 9 10 9 9 8 8 11 13 13 12 14 14 11 8 7 5 2 1 0 0 1 1 1 1 0 0 1 1 0 0 0 1 1 0 0 0 0 0 0 0
1 0 1 2 3 4 4 4 9 14 12 10 11 12 12 14 17 16 16 16 15 12 10 9 6 2 0 0 0 0 1 1 1 1 0 1 1 0 0 1 2 2 0 0 0 0 0 0 0
0 0 0 1 2 4 4 4 9 13 11 11 13 15 16 18 19 18 17 17 15 13 12 12 8 4 1 0 0 0 0 1 1 1 0 0 0 0 0 1 3 2 1 0 0 0 0 0 0
0 0 0 0 1 3 4 4 7 9 9 12 15 17 19 20 20 19 19 17 15 13 13 13 9 5 2 1 1 0 0 0 1 1 0 0 0 0 0 1 2 2 2 1 0 0 0 0 0
0 0 0 0 0 1 2 3 5 7 9 14 18 19 22 22 21 21 20 18 15 14 14 14 11 6 3 2 1 0 0 0 0 1 0 0 0 0 0 0 1 1 2 1 0 0 0 0 0
0 0 0 0 0 0 1 2 3 5 9 15 19 21 23 25 24 24 22 20 18 19 19 18 14 8 3 2 2 1 0 0 0 0 0 1 1 1 1 1 0 0 1 1 0 0 0 0 0
0 0 0 0 0 0 0 1 2 4 8 15 19 22 25 28 31 30 28 25 24 24 24 23 17 10 5 4 3 2 1 0 0 0 0 2 3 3 2 2 1 0 0 0 0 0 1 1 1
0 0 0 0 0 0 0 0 1 4 8 14 19 24 29 34 36 35 32 31 29 29 27 24 20 13 9 6 5 4 3 1 0 0 0 1 3 3 3 3 2 1 1 1 1 1 1 1 1
0 0 0 1 0 0 0 0 1 3 7 13 19 24 30 37 39 35 33 32 31 31 29 26 22 17 11 8 6 5 4 3 1 0 0 0 1 3 3 3 3 3 2 2 3 2 1 0 1
0 0 0 0 0 0 0 0 0 2 5 12 17 21 27 35 37 34 30 30 30 31 29 26 23 20 14 9 7 5 4 4 3 1 0 0 1 2 3 3 3 4 3 3 3 2 1 0 0
0 0 0 0 0 0 0 0 0 1 3 9 16 21 25 30 33 31 28 28 30 30 28 25 23 22 18 13 9 6 5 6 5 2 0 1 1 3 3 3 4 5 5 3 3 3 2 1 0
0 0 0 0 0 0 0 0 0 1 3 8 15 22 25 27 29 29 27 27 29 28 27 25 24 23 21 17 12 9 9 9 8 4 2 2 3 3 3 3 4 6 6 4 4 4 3 1 0
0 0 0 0 0 0 0 0 0 1 4 9 15 23 27 28 27 27 28 28 29 29 29 28 26 24 23 20 16 13 14 13 11 6 4 3 3 3 3 4 5 6 6 5 4 3 2 1 0
0 0 0 0 0 0 0 0 0 1 4 8 15 23 27 27 25 25 27 29 30 30 31 32 30 27 25 23 19 17 17 16 13 10 7 5 4 4 6 6 6 5 5 3 2 1 1 0 0
0 0 0 0 0 0 0 0 0 0 2 6 13 19 22 23 23 23 25 28 29 28 30 32 31 28 25 23 20 19 18 16 15 12 9 7 6 7 8 8 6 4 2 1 1 0 1 1 0
0 0 0 0 0 0 0 0 0 0 1 5 10 15 17 20 22 21 22 26 26 24 25 29 29 28 25 22 20 19 18 16 16 13 10 8 8 8 8 7 5 3 2 1 0 1 2 2 1
Wind_Speed
9 6 3 1 1 2 2 2 5 6 6 8 10 10 9 7 5 6 3 7 9 8 6 9 12 13 14 14 14 14 13 13 12 12 13 12 12 13 12 12 11 11 11 11 11 10 10 10 9
6 5 2 1 3 3 2 3 7 9 10 10 11 11 9 8 7 8 5 8 9 8 6 8 12 13 13 13 13 13 13 13 12 12 12 12 12 12 12 11 11 11 11 11 10 10 9 9 9
5 4 1 1 1 2 3 5 9 11 10 8 7 7 6 6 7 6 6 11 9 7 6 9 14 14 13 13 13 13 12 12 12 12 11 11 11 11 11 10 10 10 9 9 9 9 8 8 8
2 1 1 2 1 1 5 7 10 11 9 8 8 7 5 5 6 8 12 11 10 8 6 9 14 14 13 13 12 12 12 12 11 11 11 11 11 10 9 9 8 8 8 8 8 7 7 6 6
1 2 3 1 1 1 6 9 9 9 6 8 10 8 5 4 12 14 12 11 11 8 6 8 13 13 13 12 12 12 12 11 11 10 10 9 9 9 9 8 8 7 7 7 7 6 6 5 5
1 2 2 1 2 3 6 10 10 13 12 11 10 8 4 7 12 12 12 10 10 9 6 6 12 13 13 12 12 11 11 11 10 10 10 9 9 8 8 8 7 7 7 6 6 5 5 5 4
2 2 1 1 3 5 6 7 9 10 10 7 8 7 5 6 9 11 11 10 9 9 7 5 6 8 11 11 11 10 10 10 10 10 9 9 8 7 6 6 5 6 6 6 6 5 4 4 3
3 2 1 1 4 4 6 7 8 9 9 9 7 7 6 8 10 10 10 9 8 7 6 5 5 4 5 6 10 10 10 9 9 9 8 8 7 6 6 5 4 5 6 6 5 5 5 4 4
2 3 1 2 3 3 6 10 7 7 10 6 6 7 10 13 12 11 9 7 7 7 5 5 5 4 4 4 7 8 8 8 8 6 8 6 2 2 2 4 4 5 6 6 5 4 4 4 4
3 3 5 4 4 5 7 10 8 8 10 8 9 10 13 12 12 12 11 9 8 7 5 5 6 5 4 5 4 2 3 3 3 2 2 2 2 1 2 2 4 4 5 5 5 5 4 3 2
3 5 4 3 4 5 6 8 6 10 7 9 13 14 12 12 11 10 10 9 9 8 7 5 5 5 4 3 3 2 2 2 2 2 2 2 1 1 0 0 1 1 2 2 2 2 2 1 2
2 2 3 4 4 5 7 8 7 7 8 11 14 14 12 12 10 9 9 8 8 7 6 6 5 4 4 4 3 3 2 2 2 2 2 2 1 0 1 1 1 1 1 1 1 1 2 2 3
2 1 2 3 3 6 9 10 9 8 11 12 12 11 11 10 9 7 8 7 7 7 6 6 5 5 4 4 3 3 3 2 2 2 2 2 1 1 1 1 1 1 1 1 1 2 2 2 2
2 0 1 2 4 5 10 8 7 9 13 12 11 9 8 10 9 8 8 7 7 7 6 6 5 5 5 4 3 3 3 3 2 2 2 2 2 1 1 0 1 1 1 2 2 2 2 2 1
1 2 3 1 3 4 8 6 6 11 13 12 10 9 8 8 9 9 10 9 8 7 6 6 6 5 4 4 3 3 2 2 2 2 2 2 2 2 1 1 1 1 1 1 1 1 1 1 0
3 3 1 2 2 3 8 5 5 9 12 11 9 8 8 8 8 8 9 8 8 7 6 6 6 5 4 3 3 2 2 2 2 1 1 2 2 2 1 1 1 1 0 0 1 1 0 0 0
3 1 2 2 1 3 6 5 7 8 9 10 9 8 8 7 6 7 9 9 8 8 7 5 4 5 4 3 2 2 2 2 1 1 1 1 1 1 1 1 1 0 0 0 1 1 1 1 1
3 2 2 2 2 4 5 5 8 10 10 10 9 8 8 8 8 8 9 9 8 7 7 6 4 4 4 3 2 2 2 1 1 1 1 1 0 1 1 1 1 0 0 0 0 1 1 1 1
5 3 3 4 2 3 4 5 8 9 8 8 8 8 8 8 7 8 8 8 8 6 6 6 5 4 3 2 2 2 1 1 1 1 2 2 1 1 1 1 1 1 1 1 1 1 0 0 0
4 3 3 2 1 3 5 4 5 6 9 10 11 10 9 7 6 8 8 8 8 8 7 6 5 5 4 3 2 2 2 1 2 1 1 1 1 1 1 1 1 1 1 1 0 1 0 1 1
4 5 5 4 1 3 5 2 1 2 4 6 7 7 8 10 10 9 8 7 7 7 7 7 5 5 4 3 2 1 1 1 0 1 1 1 1 1 1 1 1 0 1 1 2 1 2 2 1
6 6 5 4 3 1 3 2 3 3 2 4 5 6 7 8 8 8 8 8 8 7 6 6 5 5 4 4 3 3 3 2 2 2 1 1 1 2 2 1 1 1 1 1 2 2 2 2 1
6 6 4 3 3 2 1 3 5 1 1 3 5 7 8 8 9 9 10 9 8 7 6 6 5 4 3 4 4 4 3 2 1 1 1 1 1 2 2 1 1 1 1 1 1 1 1 2 2
2 3 4 4 5 2 3 3 4 3 6 6 6 7 9 9 9 8 8 7 6 6 6 5 5 5 4 4 4 4 4 3 2 1 1 1 1 1 2 2 2 2 2 2 2 1 1 2 2
3 5 4 5 4 3 2 2 5 5 6 9 9 9 9 9 9 8 8 8 8 8 7 6 6 5 5 4 4 4 4 3 3 3 3 2 1 2 2 2 2 2 2 2 2 1 1 1 1
2 8 7 4 4 3 2 3 5 3 2 3 6 8 8 8 8 9 10 10 10 9 8 7 6 5 5 5 5 4 4 3 2 3 2 3 2 2 2 1 2 2 2 2 1 1 2 1 1
1 2 7 7 2 1 2 3 5 2 2 2 3 6 7 8 8 7 7 8 8 8 8 8 7 5 5 5 4 4 4 3 3 2 2 2 2 2 1 1 1 1 1 1 1 1 2 1 1
4 4 5 5 4 1 2 3 4 4 2 1 3 5 6 6 6 6 6 6 6 6 6 5 5 5 4 5 5 4 4 3 3 2 2 2 2 2 1 1 1 1 1 1 1 1 2 1 2
1 2 4 4 5 6 3 5 5 6 5 5 4 5 6 7 6 6 5 5 5 5 5 5 5 4 4 5 4 4 3 3 3 3 3 2 2 1 2 2 2 1 2 1 1 1 1 1 2
3 3 5 4 2 4 4 6 4 5 4 5 4 4 5 6 6 5 5 5 4 4 4 4 4 4 4 5 4 4 3 3 3 3 3 2 2 1 1 1 1 2 2 1 1 1 1 1 2
Wind_Direction
171 167 170 186 27 47 71 102 103 88 69 68 76 81 80 66 93 123 152 137 132 138 143 136 129 126 125 122 120 120 119 117 117 117 118 119 121 123 124 126 131 134 135 137 141 143 142 142 142
165 173 184 53 65 68 56 100 90 92 118 110 84 79 76 70 83 110 120 137 134 136 136 134 132 130 128 126 124 123 122 120 119 118 118 119 121 124 127 126 131 135 138 141 144 147 149 149 147
180 195 168 52 67 135 128 115 109 106 109 96 86 66 71 98 111 127 142 139 130 128 134 138 134 132 132 131 129 128 127 124 122 122 121 123 124 124 126 128 133 139 143 144 148 153 155 156 154
185 145 38 49 29 186 135 129 121 111 92 81 94 74 67 99 124 136 139 137 129 128 136 140 137 134 135 134 133 132 131 128 127 127 126 126 127 128 131 134 137 142 147 150 154 159 157 151 152
153 81 48 27 9 99 122 123 118 107 94 93 96 98 85 85 117 130 139 140 135 136 135 140 138 138 137 136 134 133 133 132 131 131 129 129 130 130 131 132 136 144 152 158 156 159 163 154 151
70 67 64 67 93 91 107 118 108 103 112 109 104 106 102 123 127 139 141 139 140 141 136 135 139 139 140 139 139 139 137 137 138 138 137 135 133 134 136 138 143 148 151 151 155 155 159 159 149
117 89 137 112 104 104 110 113 112 121 120 118 122 107 122 140 140 140 138 136 136 138 138 140 141 143 146 146 145 144 143 142 143 145 144 142 139 140 144 147 155 162 162 164 168 165 166 172 179
158 92 17 48 108 107 113 105 118 124 115 125 122 124 149 158 141 132 130 132 132 135 141 147 144 144 148 149 152 151 146 145 148 150 148 145 146 149 152 156 163 166 169 175 179 182 189 198 200
129 92 195 198 139 131 114 104 102 94 107 111 105 124 142 143 134 126 124 122 131 136 143 149 149 150 150 157 158 154 148 148 149 152 154 152 145 151 167 175 173 175 177 181 188 199 212 217 210
136 148 213 206 168 144 122 118 118 99 95 94 99 112 128 134 136 135 139 142 145 148 153 150 148 150 155 160 149 151 146 140 131 125 139 136 140 175 183 198 190 184 187 196 205 212 221 228 206
159 181 199 191 161 142 129 123 113 119 115 138 140 142 142 136 137 141 147 150 154 157 158 156 157 156 154 145 144 143 133 129 126 127 127 120 115 121 160 213 245 226 210 214 221 231 226 222 209
149 223 191 174 156 138 134 130 114 119 145 147 144 147 144 143 149 151 152 154 151 146 149 154 157 150 150 141 142 145 140 136 139 143 141 126 124 133 190 205 219 206 213 215 224 231 236 234 224
56 350 69 119 139 134 123 127 123 122 132 134 134 138 147 151 151 151 150 148 143 143 148 148 146 146 145 137 144 139 144 148 154 149 155 148 153 172 192 204 210 217 209 210 217 231 233 229 221
208 261 18 86 114 112 114 114 111 135 134 132 134 141 153 155 154 149 148 147 148 152 152 151 147 143 135 131 137 142 149 152 155 167 181 177 171 167 165 186 202 212 214 218 211 221 220 224 206
120 29 354 25 112 133 107 86 124 147 140 141 148 155 151 153 155 155 161 158 157 157 149 149 149 142 136 137 144 142 148 146 157 181 187 182 178 176 163 164 196 228 218 207 201 212 194 211 210
22 40 350 285 128 143 107 128 147 146 145 149 156 158 151 158 161 157 157 156 155 151 147 155 151 143 141 140 140 142 140 142 168 185 191 193 182 176 159 167 226 240 171 158 169 161 122 271 266
25 46 271 291 203 125 107 149 167 152 157 160 165 165 157 156 158 157 158 155 154 151 149 150 142 145 148 144 137 138 140 146 163 165 190 209 196 183 158 194 247 260 79 237 219 153 164 171 253
227 235 260 252 224 121 126 165 168 162 166 171 169 163 160 167 171 163 158 155 152 151 148 148 145 152 148 131 117 112 125 151 153 168 191 179 174 171 162 209 252 228 146 284 209 181 179 193 230
180 184 240 254 212 118 149 164 174 174 170 168 168 170 170 174 168 157 155 154 150 152 153 157 154 165 154 140 142 147 172 177 173 193 193 174 176 179 168 233 257 228 192 219 210 161 183 288 109
186 206 244 257 192 130 143 159 181 178 185 179 176 182 177 171 163 163 161 159 162 166 168 165 169 171 170 168 167 169 163 172 183 207 210 184 191 212 207 208 231 225 198 267 247 148 145 268 158
227 201 219 204 37 79 114 44 215 188 179 178 183 176 169 172 169 168 167 167 166 170 172 169 173 173 173 165 142 123 78 49 41 277 273 242 207 225 236 223 196 189 186 219 229 192 185 223 258
239 225 206 188 136 218 154 161 267 207 175 178 181 174 169 171 168 167 166 168 171 176 171 164 168 167 169 161 158 161 166 189 217 217 224 245 221 223 225 222 183 200 197 216 236 210 198 190 241
219 217 196 173 129 91 29 126 277 212 199 215 195 177 174 171 171 176 176 175 171 165 165 166 165 168 170 169 169 166 181 197 208 203 220 251 261 241 219 216 215 215 216 219 238 244 221 203 207
188 53 31 52 75 59 259 147 261 226 213 210 201 186 180 173 171 175 174 164 163 164 165 166 168 181 179 175 175 171 175 174 171 203 220 254 264 265 249 219 221 225 219 223 233 236 226 221 215
70 82 33 2 21 256 260 140 244 236 216 202 193 187 179 170 166 166 165 165 168 171 174 174 174 185 186 183 186 183 183 178 187 200 206 218 246 258 259 242 228 233 236 231 217 221 236 230 222
227 140 157 191 207 253 311 219 252 229 222 195 179 169 161 162 168 170 174 174 176 178 178 178 183 190 186 184 190 188 184 184 192 197 202 211 222 233 239 223 224 232 238 241 224 225 236 227 224
188 201 171 143 147 120 283 286 304 332 52 76 138 144 155 159 163 169 173 173 176 178 181 183 185 188 188 187 185 185 186 186 191 195 200 218 233 237 221 202 218 240 245 243 224 237 248 239 224
168 159 85 102 136 173 265 252 246 263 246 153 139 144 156 157 154 156 157 159 170 174 175 175 177 187 191 186 187 186 190 190 190 185 203 218 231 234 211 220 228 248 255 248 230 245 249 237 245
31 56 104 110 143 153 205 257 226 215 198 170 167 162 163 161 160 154 149 155 162 166 170 173 177 180 186 189 191 191 192 195 193 201 215 219 222 219 216 219 222 238 252 243 216 243 235 240 255
151 169 140 144 220 158 161 253 251 182 177 161 161 154 159 153 151 148 147 145 147 152 165 176 179 180 190 187 183 188 188 187 197 212 225 219 213 213 215 217 232 240 251 247 216 242 257 241 250